Regional Weather Roundup
Issued by NWS

Home | Current Version | Previous Version | Text Only | Print | Product List | Glossary On
Versions: 1 2 3 4 5 6 7 8 9 10 11 12 13 14 15 16 17 18 19 20 21 22 23 24 25 26 27 28 29 30 31 32 33 34 35 36 37 38 39 40 41 42 43 44 45 46 47 48 49 50
000
ASUS43 KFSD 260810
RWRSD

WEATHER ROUNDUP FOR SOUTH DAKOTA
NATIONAL WEATHER SERVICE SIOUX FALLS SD
300 AM CDT SUN APR 26 2015

NOTE: "FAIR" INDICATES FEW OR NO CLOUDS BELOW 12,000 FEET WITH NO
SIGNIFICANT WEATHER AND/OR OBSTRUCTIONS TO VISIBILITY.


SDZ001>005-009-010-012>017-260900-
NORTHWEST AND NORTH CENTRAL SOUTH DAKOTA

CITY           SKY/WX    TMP DP  RH WIND       PRES   REMARKS
BUFFALO          N/A     43  39  86 N10       29.84F
FAITH            N/A     49  46  90 S5        29.89S
MOBRIDGE       CLOUDY    52  43  71 SE14      29.91R
$$

SDZ012>016-024>037-041>051-057-063-072>074-260900-
SOUTHWEST AND SOUTH CENTRAL SOUTH DAKOTA

CITY           SKY/WX    TMP DP  RH WIND       PRES   REMARKS
RAPID CTY ARPT CLOUDY    44  41  89 N20       29.88R
PIERRE         CLOUDY    51  43  74 SE13      29.91R
CUSTER         CLOUDY    43  41  93 NE6       29.88F
ELLSWORTH AFB  CLOUDY    43  43 100 N16       29.88
PHILIP         CLOUDY    50  48  93 E7        29.88S FOG
PINE RIDGE     CLOUDY    49  47  93 E5        29.87S
SPEARFISH      CLOUDY    39  39 100 NW5       29.93R FOG
WINNER         CLOUDY    51  43  74 SE10      29.92R
$$

SDZ004>011-016>023-039-040-260900-
NORTHEAST SOUTH DAKOTA

CITY           SKY/WX    TMP DP  RH WIND       PRES   REMARKS
ABERDEEN       CLOUDY    50  40  68 E7        29.97S
WATERTOWN      PTCLDY    38  36  92 NE3       29.98S
BROOKINGS      CLEAR     37  36  93 E3        29.98F
SISSETON         N/A     41  34  76 SE5       30.01S
$$

SDZ017-020-022-023-036>040-048>070-260900-
SOUTHEAST SOUTH DAKOTA

CITY           SKY/WX    TMP DP  RH WIND       PRES   REMARKS
SIOUX FALLS    PTCLDY    40  36  86 CALM      29.97R
HURON          PTCLDY    45  39  79 SE8       29.96R
CHAMBERLAIN    MOCLDY    46  42  84 SE10      29.94R
MITCHELL       PTCLDY    44  41  89 SE5       29.96R
YANKTON        CLOUDY    48  39  71 E7        29.95S
$$

ABBREVIATIONS USED IN REMARKS
   TC - TEMPERATURE IN CELSIUS
  WCI - WIND CHILL INDEX
   HX - HEAT INDEX
  VSB - VISIBILITY




USA.gov is the U.S. government's official web portal to all federal, state and local government web resources and services.